STARLINK-36160

Last updated on Fri Dec 19 2025 00:02:08 GMT+0000 (Coordinated Universal Time)

1 66936U 25286M 25352.58336806 -.01328198 00000+0 -70578-2 0 9991 2 66936 53.1560 21.0295 0001025 61.7540 65.4116 15.82641401 2931
UTC large
Height (km)
Speed (km/s)
/
Latitude / Longitude
Inclination (degrees)
Orbital Period (minutes)
Azimuth
Elevation
Range (km)
Doppler Factor

Next 0 passes for location: London (51.5072 / 0.1276)

Sorry there are no passes over London.